User: anonymous   Login
Location: Greenwich
(51.4790°N, 0.0090°E)
Time: 20:42:14
(UTC+01:00)
Language:

Altair - Orbit

View from above orbital plane
View from above orbital plane
View from above satellite
View from above satellite

Ground track
Ground track

The orbit data is extracted from the following two-line orbital elements,

1 00050U 60009B   24109.34668263 -.00000035  00000-0  47204-3 0  9993
2 00050  47.2300  93.3010 0113151 181.2462 178.8059 12.20138881841268
Epoch (UTC): 18 April 2024 08:19:13
Eccentricity: 0.0113151
inclination: 47.2300°
perigee height: 1502 km
apogee height: 1682 km
right ascension of ascending node: 93.3010°
argument of perigee: 181.2462°
revolutions per day: 12.20138881
mean anomaly at epoch: 178.8059°
orbit number at epoch: 84126

The dashed part of the orbit path shows where the satellite is in the earth's shadow,  

DLR